Regional Weather Roundup
Issued by NWS

Home | Current Version | Previous Version | Graphics & Text | Print | Product List | Glossary Off
Versions: 1 2 3 4 5 6 7 8 9 10 11 12 13 14 15 16 17 18 19 20 21 22 23 24 25 26 27 28 29 30 31 32 33 34 35 36 37 38 39 40 41 42 43 44 45 46 47 48 49 50

000
ASUS43 KDMX 182306
RWRIA

WEATHER ROUNDUP FOR IOWA
NATIONAL WEATHER SERVICE DES MOINES IA
600 PM CDT WED APR 18 2018

NOTE: "FAIR" INDICATES FEW OR NO CLOUDS BELOW 12,000 FEET WITH NO
SIGNIFICANT WEATHER AND/OR OBSTRUCTIONS TO VISIBILITY.

* - THESE STATIONS ARE NOT NWS STATIONS...THUS NOT UNDER NWS
QUALITY CONTROL.  THEY ALSO DO NOT REPORT WEATHER SUCH
AS PRECIPITATION OR FOG.

IAZ001>003-012>014-020>022-031>034-043>046-190000-
   NORTHWEST IOWA

CITY           SKY/WX    TMP DP  RH WIND       PRES   REMARKS
CARROLL *      MIX PCPN  34  32  93 N14G20    30.08R WCI  24
CHEROKEE *     CLOUDY    34  32  92 NW9       30.11R WCI  27
DENISON *      CLOUDY    36  32  87 NW14G23   30.12R WCI  27
LE MARS *      MOSUNNY   36  34  93 NW13G21   30.12R WCI  27
ORANGE CITY *  LGT RAIN  34  34 100 NE3       30.11R
SHELDON *      LGT SNOW  32  32 100 N10       30.09R WCI  24
SIOUX CITY     CLOUDY    38  31  76 NW15      30.13R WCI  29
SPENCER        CLOUDY    34  28  79 N16       30.09R WCI  24
STORM LAKE *   MIX PCPN  32  30  93 NW16      30.08R WCI  21
$$

IAZ055>058-069>071-079>083-090>094-190000-
   SOUTHWEST IOWA

CITY           SKY/WX    TMP DP  RH WIND       PRES   REMARKS
ATLANTIC *     CLOUDY    37  28  70 NW20G28   30.10R WCI  27
AUDUBON *      CLOUDY    36  28  75 NW15G22   30.10R WCI  26
CLARINDA *     PTSUNNY   41  25  52 N21G28    30.12R
COUNCIL BLFS * CLOUDY    37  34  87 NW20G26   30.13R WCI  27
CRESTON *      CLOUDY    36  27  69 NW20G26   30.07R WCI  25
HARLAN  *      MIX PCPN  37  32  81 N18G25    30.14R WCI  27
LAMONI         CLOUDY    36  26  67 NW18      30.05R WCI  26
RED OAK *      CLOUDY    39  27  60 NW18G28   30.12R WCI  30
SHENANDOAH *   CLOUDY    41  27  56 NW18G25   30.13R
$$

IAZ047>049-059>061-072>074-084-190000-
   CENTRAL IOWA

CITY           SKY/WX    TMP DP  RH WIND       PRES   REMARKS
AMES           CLOUDY    34  29  82 N16       30.05R WCI  24
ANKENY *       CLOUDY    34  28  80 NW15      30.06R WCI  24
BOONE *        LGT RAIN  32  30  93 N15       30.04R WCI  22
CHARITON *     MIX PCPN  34  28  80 NW15G21   30.03R WCI  24
DES MOINES     CLOUDY    36  29  75 NW15      30.04R WCI  27
GRINNELL*      FLURRIES  33  31  93 NW9       30.03R WCI  25
KNOXVILLE *    CLOUDY    34  28  80 NW13      30.02R WCI  25
MARSHALLTOWN   LGT SNOW  32  30  92 NW9       30.02R FOG     WCI  24
NEWTON *       CLOUDY    32  30  93 N8        30.03R WCI  25
PELLA *        FLURRIES  34  30  87 NW12G17   30.04R WCI  25
PERRY *        CLOUDY    35  28  75 NW16      30.07R WCI  25
$$

IAZ004>006-015-016-023>025-035-036-190000-
   NORTH CENTRAL IOWA

CITY           SKY/WX    TMP DP  RH WIND       PRES   REMARKS
ALGONA *       CLOUDY    32  30  93 N12       30.06R FOG     WCI  23
CLARION *      MOSUNNY   32  28  86 NW9       30.04R FOG     WCI  24
ESTHERVILLE    CLOUDY    32  29  88 N14       30.07R FOG     WCI  22
FORT DODGE *   LGT RAIN  33  29  85 N9        30.07R WCI  25
MASON CITY     LGT SNOW  31  28  89 N10       30.04R FOG     WCI  22
FOREST CITY *  LGT SNOW  32  32 100 N10       30.04R WCI  24
WEBSTER CITY * LGT SNOW  32  30  93 NW17      30.03R WCI  21
IOWA FALLS *   CLOUDY    34  30  85 NW10      30.03R WCI  26
$$

IAZ007>011-017>019-026>030-037>042-050>054-066-190000-
   NORTHEAST IOWA

CITY           SKY/WX    TMP DP  RH WIND       PRES   REMARKS
CEDAR RAPIDS   LGT SNOW  34  32  92 NW14      29.97R FOG     WCI  25
CHARLES CITY * LGT SNOW  32  32 100 NW13      30.01R VSB 1   WCI  22
CLINTON *      LGT SNOW  32  31  96 N17       29.93R FOG     WCI  21
DECORAH *      LGT SNOW  30  30 100 N8        29.97R VSB 1   WCI  23
DUBUQUE        SNOW      31  28  89 N15       29.93R VSB 1/2 WCI  20
MONTICELLO *   MIX PCPN  32  30  93 N12       29.95R WCI  23
OELWEIN *      FLURRIES  32  32 100 NW12      29.98R WCI  23
WATERLOO       LGT SNOW  32  30  92 NW13      30.00R VSB 3/4 WCI  22
$$

IAZ064-065-067-068-078-190000-
   EAST CENTRAL IOWA

CITY           SKY/WX    TMP DP  RH WIND       PRES   REMARKS
DAVENPORT      LGT SNOW  32  30  92 N14       29.95R FOG     WCI  22
IOWA CITY      CLOUDY    35  29  78 N12       29.99R WCI  27
MT. PLEASANT * LGT RAIN  34  32  93 NW9       29.98R WCI  26
MUSCATINE *    FLURRIES  34  30  86 N15       29.97R WCI  24
QUAD CITIES    CLOUDY    34  32  92 N12       29.93R FOG     WCI  25
$$

IAZ062-063-075>077-085>089-095>099-190000-
   SOUTHEAST IOWA

CITY           SKY/WX    TMP DP  RH WIND       PRES   REMARKS
BURLINGTON     CLOUDY    36  29  75 NW16G22   29.95R WCI  26
FAIRFIELD *    CLOUDY    36  30  80 NW15      29.98R WCI  26
FORT MADISON * CLOUDY    37  30  75 NW15G23   29.97R WCI  28
KEOKUK *       MIX PCPN  37  28  70 NW15G23   29.98R WCI  28
OSKALOOSA *    DRIZZLE   33  30  86 N15       30.02R WCI  23
CENTERVILLE *    N/A     36  30  80 W17       30.03R WCI  25
OTTUMWA        FLURRIES  34  29  82 N17       30.01R WCI  23
WASHINGTON *   CLOUDY    34  34 100 NW18      29.99R WCI  23
$$

ABBREVIATIONS USED IN REMARKS
   TC - TEMPERATURES IN CELSIUS
  WCI - WIND CHILL INDEX
   HX - HEAT INDEX
  VSB - VISIBILITY
$$





USA.gov is the U.S. government's official web portal to all federal, state and local government web resources and services.